Longview, TX

7:40 AM CDT on March 29, 2017 (GMT -0500)
Gregg County

Weather History for KGGG - March, 2014

Change the Weather History Date:

Wednesday, March 19, 2014

  Actual Average Record
Temperature  
Mean Temperature 55 °F 58 °F  
Max Temperature 64 °F 70 °F 88 °F (1945)
Min Temperature 45 °F 47 °F 19 °F (1923)
Degree Days  
Heating Degree Days 10 7  
Month to date heating degree days 271 178  
Since 1 July heating degree days 2395 2082  
Cooling Degree Days 0 1  
Month to date cooling degree days 3 19  
Year to date cooling degree days 8 31  
Growing Degree Days 6 (Base 50)    
Moisture  
Dew Point 41 °F    
Average Humidity 60    
Maximum Humidity 84    
Minimum Humidity 36    
Precipitation  
Precipitation T in 0.15 in 1.23 in (1903)
Month to date precipitation 1.76 2.67  
Year to date precipitation 4.74 10.03  
Snow  
Snow 0.00 in - - ()
Month to date snowfall 0.1  
Since 1 July snowfall 0.3  
Snow Depth 0.00 in    
Sea Level Pressure  
Sea Level Pressure 30.06 in    
Wind  
Wind Speed 7 mph (NW)    
Max Wind Speed 18 mph    
Max Gust Speed 24 mph    
Visibility 10 miles    
Events      
T = Trace of Precipitation, MM = Missing Value Source: NWS Daily Summary

Daily Weather History Graph

Daily Weather History Graph

Search for Another Location

Airport or City:

Trip Planner

Search our weather history database for the weather conditions in past years. The results will help you decide how hot, cold, wet, or windy it might be!

Date:

Astronomy

Mar. 19, 2014 Rise Set
Actual Time 7:23 AM CDT 7:29 PM CDT
Civil Twilight 6:59 AM CDT 7:54 PM CDT
Nautical Twilight 6:30 AM CDT 8:22 PM CDT
Astronomical Twilight 6:02 AM CDT 8:51 PM CDT
Moon 10:36 PM CDT (3/19) 9:00 AM CDT (3/19)
Length of Visible Light 12h 54m
Length of Day
12h 05m
Waning Gibbous, 91% of the Moon is Illuminated
Mar 19
Waning Gibbous
Mar 23
Last Quarter
Mar 30
New
Apr 7
First Quarter
Apr 15
Full

Hourly Weather History & Observations

Time (CDT) Temp. Dew Point Humidity Pressure Visibility Wind Dir Wind Speed Gust Speed Precip Events Conditions
12:53 AM 61.0 °F 53.1 °F 75% 29.86 in 10.0 mi SSW 8.1 mph - N/A   Clear
1:26 AM 60.8 °F 53.6 °F 77% 29.89 in 10.0 mi SW 6.9 mph - N/A   Mostly Cloudy
1:53 AM 62.1 °F 54.0 °F 75% 29.91 in 10.0 mi SSW 8.1 mph - N/A   Overcast
2:28 AM 60.8 °F 53.6 °F 77% 29.91 in 10.0 mi SSW 9.2 mph - N/A   Mostly Cloudy
2:53 AM 61.0 °F 54.0 °F 78% 29.90 in 10.0 mi SSW 10.4 mph - N/A   Mostly Cloudy
3:53 AM 61.0 °F 55.0 °F 81% 29.92 in 10.0 mi WNW 5.8 mph - 0.00 in   Overcast
4:53 AM 57.9 °F 48.0 °F 70% 29.94 in 10.0 mi NW 4.6 mph - N/A   Overcast
5:53 AM 55.9 °F 37.9 °F 51% 29.98 in 10.0 mi NW 6.9 mph - N/A   Overcast
6:53 AM 54.0 °F 37.0 °F 53% 30.01 in 10.0 mi NNW 10.4 mph - N/A   Clear
7:53 AM 52.0 °F 34.0 °F 50% 30.05 in 10.0 mi NNW 12.7 mph - N/A   Clear
8:53 AM 52.0 °F 30.9 °F 45% 30.09 in 10.0 mi NW 15.0 mph - N/A   Clear
9:53 AM 52.0 °F 30.9 °F 45% 30.13 in 10.0 mi NW 15.0 mph - N/A   Clear
10:53 AM 55.0 °F 33.1 °F 43% 30.14 in 10.0 mi North 8.1 mph - N/A   Clear
11:53 AM 57.0 °F 35.1 °F 44% 30.14 in 10.0 mi North 8.1 mph - N/A   Clear
12:53 PM 59.0 °F 35.1 °F 41% 30.14 in 10.0 mi NW 11.5 mph 17.3 mph N/A   Clear
1:53 PM 61.0 °F 36.0 °F 39% 30.13 in 10.0 mi Variable 6.9 mph - N/A   Clear
2:53 PM 62.1 °F 36.0 °F 38% 30.12 in 10.0 mi NNW 6.9 mph - N/A   Clear
3:53 PM 63.0 °F 37.0 °F 38% 30.12 in 10.0 mi NW 9.2 mph - N/A   Clear
4:53 PM 63.0 °F 37.9 °F 40% 30.11 in 10.0 mi NW 9.2 mph - N/A   Clear
5:53 PM 63.0 °F 37.9 °F 40% 30.11 in 10.0 mi NNW 6.9 mph - N/A   Clear
6:53 PM 61.0 °F 39.0 °F 44% 30.12 in 10.0 mi North 5.8 mph - N/A   Clear
7:53 PM 57.9 °F 39.0 °F 49% 30.13 in 10.0 mi North 3.5 mph - N/A   Clear
8:53 PM 54.0 °F 39.0 °F 57% 30.15 in 10.0 mi Calm Calm - N/A   Clear
9:53 PM 52.0 °F 39.0 °F 61% 30.17 in 10.0 mi WNW 3.5 mph - N/A   Clear
10:53 PM 48.9 °F 39.0 °F 69% 30.18 in 10.0 mi Calm Calm - N/A   Clear
11:53 PM 46.9 °F 39.0 °F 74% 30.19 in 10.0 mi WNW 4.6 mph - N/A   Clear